ASNARO

Last updated on Sat Apr 13 2024 01:02:24 GMT+0100 (British Summer Time)

1 40298U 14070A 24103.56490608 .00013626 00000+0 64609-3 0 9998 2 40298 97.4122 186.2916 0006901 130.2971 229.8868 15.19385698523189
UTC large
Height (km)
Speed (km/s)
/
Latitude / Longitude
Inclination (degrees)
Orbital Period (minutes)
Azimuth
Elevation
Range (km)
Doppler Factor

Next 0 passes for location: London (51.5072 / 0.1276)

Sorry there are no passes over London.